Milwaukee, WI

7:08 PM CDT on March 30, 2017 (GMT -0500)
Gen Mitchell International

Weather History for KMKE - August, 2014

Change the Weather History Date:

Wednesday, August 27, 2014

  Actual Average Record
Temperature  
Mean Temperature 68 °F 70 °F  
Max Temperature 73 °F 77 °F 99 °F (1973)
Min Temperature 62 °F 62 °F 48 °F (1876)
Degree Days  
Heating Degree Days 0 1  
Month to date heating degree days 5 6  
Since 1 June heating degree days 100 101  
Since 1 July heating degree days 26 17  
Cooling Degree Days 3 5  
Month to date cooling degree days 140 174  
Year to date cooling degree days 375 546  
Since 1 June cooling degree days 357 516  
Growing Degree Days 18 (Base 50)    
Moisture  
Dew Point 59 °F    
Average Humidity 79    
Maximum Humidity 84    
Minimum Humidity 73    
Precipitation  
Precipitation 0.00 in 0.12 in 1.63 in (1877)
Month to date precipitation 5.01 3.49  
Year to date precipitation 24.61 23.70  
Snow  
Snow 0.00 in 0.00 in 0.00 in ()
Month to date snowfall 0.0 0.0  
Since 1 June snowfall 0.0 0.0  
Since 1 July snowfall 0.0 0.0  
Snow Depth 0.00 in    
Sea Level Pressure  
Sea Level Pressure 30.14 in    
Wind  
Wind Speed 6 mph (NE)    
Max Wind Speed 15 mph    
Max Gust Speed 20 mph    
Visibility 10 miles    
Events      
T = Trace of Precipitation, MM = Missing Value Source: NWS Daily Summary

Daily Weather History Graph

Daily Weather History Graph

Search for Another Location

Airport or City:

Trip Planner

Search our weather history database for the weather conditions in past years. The results will help you decide how hot, cold, wet, or windy it might be!

Date:

Astronomy

Aug. 27, 2014 Rise Set
Actual Time 6:10 AM CDT 7:34 PM CDT
Civil Twilight 5:41 AM CDT 8:04 PM CDT
Nautical Twilight 5:05 AM CDT 8:39 PM CDT
Astronomical Twilight 4:27 AM CDT 9:17 PM CDT
Moon 8:10 AM CDT (8/27) 8:22 PM CDT (8/27)
Length of Visible Light 14h 23m
Length of Day
13h 24m
Waxing Crescent, 4% of the Moon is Illuminated
Aug 27
Waxing Crescent
Sep 2
First Quarter
Sep 8
Full
Sep 15
Last Quarter
Sep 24
New

Hourly Weather History & Observations

Time (CDT) Temp. Dew Point Humidity Pressure Visibility Wind Dir Wind Speed Gust Speed Precip Events Conditions
12:52 AM 66.9 °F 57.9 °F 73% 30.12 in 10.0 mi NNW 4.6 mph - N/A   Mostly Cloudy
1:52 AM 66.0 °F 57.0 °F 73% 30.12 in 10.0 mi North 3.5 mph - N/A   Mostly Cloudy
2:52 AM 66.9 °F 57.0 °F 70% 30.12 in 10.0 mi NW 3.5 mph - N/A   Mostly Cloudy
3:52 AM 64.4 °F 57.2 °F 77% 30.13 in 10.0 mi NW 3.5 mph - N/A   Mostly Cloudy
4:52 AM 64.9 °F 57.0 °F 75% 30.13 in 10.0 mi North 4.6 mph - N/A   Mostly Cloudy
5:52 AM 64.0 °F 55.9 °F 75% 30.14 in 10.0 mi NNW 3.5 mph - N/A   Mostly Cloudy
6:52 AM 63.0 °F 57.0 °F 81% 30.15 in 10.0 mi NNW 3.5 mph - N/A   Scattered Clouds
7:52 AM 66.9 °F 60.1 °F 79% 30.15 in 10.0 mi North 3.5 mph - N/A   Partly Cloudy
8:52 AM 68.0 °F 62.1 °F 81% 30.15 in 10.0 mi NNE 6.9 mph - N/A   Scattered Clouds
9:52 AM 69.1 °F 63.0 °F 81% 30.16 in 10.0 mi NE 9.2 mph - N/A   Mostly Cloudy
10:52 AM 71.1 °F 63.0 °F 75% 30.17 in 10.0 mi NE 11.5 mph - N/A   Scattered Clouds
11:52 AM 70.0 °F 63.0 °F 78% 30.17 in 10.0 mi NNE 10.4 mph - N/A   Scattered Clouds
12:52 PM 72.0 °F 63.0 °F 73% 30.17 in 10.0 mi ENE 12.7 mph 17.3 mph N/A   Scattered Clouds
1:52 PM 71.6 °F 62.6 °F 73% 30.17 in 10.0 mi NE 9.2 mph - N/A   Mostly Cloudy
2:52 PM 70.0 °F 62.1 °F 76% 30.16 in 10.0 mi ENE 8.1 mph - N/A   Mostly Cloudy
3:52 PM 72.0 °F 62.1 °F 71% 30.15 in 10.0 mi NE 8.1 mph - N/A   Mostly Cloudy
4:52 PM 69.8 °F 60.8 °F 73% 30.15 in 10.0 mi East 8.1 mph - N/A   Mostly Cloudy
5:52 PM 69.1 °F 61.0 °F 75% 30.14 in 10.0 mi ENE 6.9 mph - N/A   Mostly Cloudy
6:52 PM 66.0 °F 60.1 °F 81% 30.13 in 10.0 mi ESE 6.9 mph - N/A   Mostly Cloudy
7:52 PM 66.0 °F 60.1 °F 81% 30.12 in 10.0 mi ENE 6.9 mph - N/A   Mostly Cloudy
8:52 PM 64.9 °F 57.9 °F 78% 30.13 in 10.0 mi ENE 6.9 mph - N/A   Scattered Clouds
9:52 PM 64.0 °F 55.0 °F 73% 30.14 in 10.0 mi East 4.6 mph - N/A   Partly Cloudy
10:52 PM 64.0 °F 55.9 °F 75% 30.14 in 10.0 mi East 4.6 mph - N/A   Partly Cloudy
11:52 PM 64.0 °F 55.9 °F 75% 30.15 in 10.0 mi ENE 3.5 mph - N/A   Partly Cloudy